| time (UTC) | temp F | wind direction | speed MPH | gust MPH | rain 1hr in | rain 24hr in | rain mn in | humidity % | barometer mb |
| 20260507211802 | 51 | 156 | 4.0 | 8.0 | 0.00 | 0.00 | 0.00 | 74 | |
| 20260507210923 | 51 | 159 | 4.0 | 11.0 | 0.00 | 0.00 | 0.00 | 74 | |
| 20260507210002 | 51 | 160 | 5.0 | 14.0 | 0.00 | 0.00 | 0.00 | 74 | |
| 20260507205402 | 51 | 158 | 5.0 | 14.0 | 0.00 | 0.00 | 0.00 | 74 | |
| 20260507204502 | 51 | 155 | 5.0 | 12.0 | 0.00 | 0.00 | 0.00 | 74 | |
| 20260507203602 | 51 | 153 | 4.0 | 11.0 | 0.00 | 0.00 | 0.00 | 74 | |
| 20260507202702 | 50 | 153 | 4.0 | 11.0 | 0.00 | 0.00 | 0.00 | 74 | |
| 20260507201802 | 51 | 165 | 3.0 | 7.0 | 0.00 | 0.00 | 0.00 | 74 | |
| 20260507200902 | 51 | 167 | 3.0 | 6.0 | 0.00 | 0.00 | 0.00 | 74 | |
| 20260507200002 | 51 | 170 | 3.0 | 8.0 | 0.00 | 0.00 | 0.00 | 73 | |
| 20260507195402 | 51 | 181 | 4.0 | 8.0 | 0.00 | 0.00 | 0.00 | 73 | |
| 20260507194502 | 51 | 163 | 2.0 | 7.0 | 0.00 | 0.00 | 0.00 | 73 | |
| 20260507193602 | 51 | 154 | 2.0 | 7.0 | 0.00 | 0.00 | 0.00 | 72 | |
| 20260507192702 | 51 | 165 | 3.0 | 6.0 | 0.00 | 0.00 | 0.00 | 72 | |
| 20260507191802 | 52 | 159 | 3.0 | 6.0 | 0.00 | 0.00 | 0.00 | 71 | |
| 20260507190902 | 52 | 186 | 2.0 | 6.0 | 0.00 | 0.00 | 0.00 | 70 | |
| 20260507190003 | 52 | 196 | 3.0 | 7.0 | 0.00 | 0.00 | 0.00 | 70 | |
| 20260507185423 | 52 | 196 | 4.0 | 7.0 | 0.00 | 0.00 | 0.00 | 70 | |
| 20260507184502 | 52 | 195 | 6.0 | 11.0 | 0.00 | 0.00 | 0.00 | 69 | |
| 20260507183602 | 52 | 192 | 6.0 | 12.0 | 0.00 | 0.00 | 0.00 | 69 | |
| 20260507182702 | 53 | 186 | 6.0 | 16.0 | 0.00 | 0.00 | 0.00 | 68 | |
| 20260507181802 | 53 | 190 | 7.0 | 17.0 | 0.00 | 0.00 | 0.00 | 68 | |
| 20260507180902 | 53 | 178 | 7.0 | 16.0 | 0.00 | 0.00 | 0.00 | 67 | |
| 20260507180002 | 53 | 175 | 6.0 | 14.0 | 0.00 | 0.00 | 0.00 | 67 | |
| 20260507175402 | 54 | 180 | 6.0 | 14.0 | 0.00 | 0.00 | 0.00 | 66 | |
| 20260507174502 | 54 | 191 | 5.0 | 13.0 | 0.00 | 0.00 | 0.00 | 67 | |
| 20260507173603 | 54 | 183 | 6.0 | 17.0 | 0.00 | 0.00 | 0.00 | 65 | |
| 20260507172723 | 54 | 196 | 11.0 | 22.0 | 0.00 | 0.00 | 0.00 | 63 | |
| 20260507171802 | 55 | 193 | 13.0 | 26.0 | 0.00 | 0.00 | 0.00 | 62 | |
| 20260507170923 | 54 | 193 | 9.0 | 26.0 | 0.00 | 0.00 | 0.00 | 63 | |
| 20260507170002 | 54 | 190 | 10.0 | 18.0 | 0.00 | 0.00 | 0.00 | 63 | |
| 20260507165402 | 55 | 198 | 10.0 | 24.0 | 0.00 | 0.00 | 0.00 | 63 | |
| 20260507164502 | 55 | 196 | 8.0 | 19.0 | 0.00 | 0.00 | 0.00 | 65 | |
| 20260507163602 | 55 | 197 | 8.0 | 19.0 | 0.00 | 0.00 | 0.00 | 64 | |
| 20260507162702 | 54 | 200 | 10.0 | 23.0 | 0.00 | 0.00 | 0.00 | 63 | |
| 20260507161802 | 54 | 200 | 10.0 | 22.0 | 0.00 | 0.00 | 0.00 | 64 | |
| 20260507160902 | 55 | 194 | 9.0 | 20.0 | 0.00 | 0.00 | 0.00 | 63 | |
| 20260507160023 | 55 | 192 | 8.0 | 20.0 | 0.00 | 0.00 | 0.00 | 64 | |
| 20260507155402 | 55 | 196 | 7.0 | 13.0 | 0.00 | 0.00 | 0.00 | 65 | |
| 20260507154502 | 54 | 194 | 7.0 | 17.0 | 0.00 | 0.00 | 0.00 | 66 | |
| 20260507153603 | 54 | 197 | 8.0 | 17.0 | 0.00 | 0.00 | 0.00 | 66 | |
| 20260507152702 | 54 | 196 | 9.0 | 20.0 | 0.00 | 0.00 | 0.00 | 67 | |
| 20260507151802 | 54 | 199 | 7.0 | 14.0 | 0.00 | 0.00 | 0.00 | 68 | |
| 20260507150902 | 54 | 199 | 9.0 | 18.0 | 0.00 | 0.00 | 0.00 | 68 | |
| 20260507150002 | 54 | 209 | 9.0 | 17.0 | 0.00 | 0.00 | 0.00 | 67 | |
| 20260507145403 | 54 | 207 | 11.0 | 18.0 | 0.00 | 0.00 | 0.00 | 67 | |
| 20260507144502 | 54 | 203 | 7.0 | 14.0 | 0.00 | 0.00 | 0.00 | 67 | |
| 20260507143602 | 53 | 203 | 10.0 | 19.0 | 0.00 | 0.00 | 0.00 | 69 | |
| 20260507142703 | 53 | 199 | 10.0 | 19.0 | 0.00 | 0.00 | 0.00 | 68 | |
| 20260507141802 | 53 | 194 | 9.0 | 19.0 | 0.00 | 0.00 | 0.00 | 68 | |
| 20260507140903 | 53 | 200 | 9.0 | 19.0 | 0.00 | 0.00 | 0.00 | 68 | |
| 20260507140002 | 53 | 200 | 10.0 | 19.0 | 0.00 | 0.00 | 0.00 | 68 | |
| 20260507135423 | 53 | 196 | 10.0 | 18.0 | 0.00 | 0.00 | 0.00 | 66 | |
| 20260507134502 | 54 | 198 | 9.0 | 16.0 | 0.00 | 0.00 | 0.00 | 67 | |
| 20260507133602 | 54 | 208 | 10.0 | 19.0 | 0.00 | 0.00 | 0.00 | 65 | |
| 20260507132724 | 54 | 210 | 9.0 | 19.0 | 0.00 | 0.00 | 0.00 | 66 | |
| 20260507131802 | 54 | 215 | 11.0 | 19.0 | 0.00 | 0.00 | 0.00 | 65 | |
| 20260507130903 | 54 | 207 | 7.0 | 16.0 | 0.00 | 0.00 | 0.00 | 66 | |
| 20260507130003 | 54 | 257 | 5.0 | 8.0 | 0.00 | 0.00 | 0.00 | 69 | |
| 20260507125423 | 53 | 240 | 6.0 | 11.0 | 0.00 | 0.00 | 0.00 | 70 | |
| 20260507124523 | 53 | 230 | 9.0 | 13.0 | 0.00 | 0.00 | 0.00 | 67 | |
| 20260507123602 | 53 | 207 | 7.0 | 13.0 | 0.00 | 0.00 | 0.00 | 64 | |
| 20260507122703 | 54 | 211 | 5.0 | 16.0 | 0.00 | 0.00 | 0.00 | 67 | |
| 20260507121803 | 53 | 185 | 5.0 | 17.0 | 0.00 | 0.00 | 0.00 | 67 | |
| 20260507120902 | 53 | 177 | 7.0 | 17.0 | 0.00 | 0.00 | 0.00 | 68 | |
| 20260507120003 | 54 | 175 | 8.0 | 17.0 | 0.00 | 0.00 | 0.00 | 64 | |
| 20260507115402 | 55 | 172 | 6.0 | 17.0 | 0.00 | 0.00 | 0.00 | 65 | |
| 20260507114524 | 55 | 182 | 5.0 | 13.0 | 0.00 | 0.00 | 0.00 | 65 | |
| 20260507113603 | 54 | 178 | 6.0 | 14.0 | 0.00 | 0.00 | 0.00 | 68 | |
| 20260507112702 | 54 | 165 | 6.0 | 17.0 | 0.00 | 0.00 | 0.00 | 67 | |
| 20260507111803 | 53 | 184 | 9.0 | 17.0 | 0.00 | 0.00 | 0.00 | 67 | |
| 20260507110902 | 54 | 179 | 6.0 | 12.0 | 0.00 | 0.00 | 0.00 | 67 | |
| 20260507110003 | 54 | 184 | 7.0 | 14.0 | 0.00 | 0.00 | 0.00 | 67 | |
| 20260507105402 | 53 | 187 | 8.0 | 18.0 | 0.00 | 0.00 | 0.00 | 68 | |
| 20260507104503 | 53 | 175 | 8.0 | 18.0 | 0.00 | 0.00 | 0.00 | 69 | |
| 20260507103602 | 52 | 164 | 7.0 | 19.0 | 0.00 | 0.00 | 0.00 | 68 | |
| 20260507102702 | 52 | 168 | 7.0 | 17.0 | 0.00 | 0.00 | 0.00 | 69 | |
| 20260507101802 | 51 | 167 | 7.0 | 16.0 | 0.00 | 0.00 | 0.00 | 69 | |
| 20260507100903 | 51 | 172 | 8.0 | 18.0 | 0.00 | 0.00 | 0.00 | 69 | |
| 20260507100023 | 50 | 167 | 8.0 | 17.0 | 0.00 | 0.00 | 0.00 | 69 | |
| 20260507095403 | 50 | 166 | 8.0 | 18.0 | 0.00 | 0.00 | 0.00 | 69 | |
| 20260507094502 | 50 | 179 | 10.0 | 20.0 | 0.00 | 0.00 | 0.00 | 69 | |
| 20260507093603 | 50 | 184 | 11.0 | 24.0 | 0.00 | 0.00 | 0.00 | 68 | |
| 20260507092703 | 50 | 185 | 10.0 | 24.0 | 0.00 | 0.00 | 0.00 | 69 | |
| 20260507091803 | 50 | 163 | 9.0 | 20.0 | 0.00 | 0.00 | 0.00 | 68 | |
| 20260507090903 | 50 | 165 | 9.0 | 18.0 | 0.00 | 0.00 | 0.00 | 68 | |
| 20260507090006 | 51 | 160 | 10.0 | 22.0 | 0.00 | 0.00 | 0.00 | 68 | |
| 20260507085403 | 51 | 161 | 10.0 | 23.0 | 0.00 | 0.00 | 0.00 | 67 | |
| 20260507084524 | 51 | 159 | 9.0 | 23.0 | 0.00 | 0.00 | 0.00 | 67 | |
| 20260507083603 | 51 | 165 | 10.0 | 20.0 | 0.00 | 0.00 | 0.00 | 66 | |
| 20260507082703 | 51 | 167 | 9.0 | 24.0 | 0.00 | 0.00 | 0.00 | 66 | |
| 20260507081803 | 51 | 156 | 11.0 | 23.0 | 0.00 | 0.00 | 0.00 | 66 | |
| 20260507080903 | 50 | 158 | 8.0 | 18.0 | 0.00 | 0.00 | 0.00 | 67 | |
| 20260507080003 | 49 | 160 | 9.0 | 19.0 | 0.00 | 0.00 | 0.00 | 67 | |
| 20260507075403 | 50 | 158 | 8.0 | 17.0 | 0.00 | 0.00 | 0.00 | 67 | |
| 20260507074502 | 49 | 155 | 9.0 | 22.0 | 0.00 | 0.00 | 0.00 | 68 | |
| 20260507073602 | 48 | 160 | 9.0 | 26.0 | 0.00 | 0.00 | 0.00 | 68 | |
| 20260507072702 | 47 | 162 | 9.0 | 19.0 | 0.00 | 0.00 | 0.00 | 68 | |
| 20260507071824 | 47 | 160 | 10.0 | 23.0 | 0.00 | 0.00 | 0.00 | 68 | |
| 20260507070903 | 47 | 159 | 9.0 | 18.0 | 0.00 | 0.00 | 0.00 | 70 | |
| 20260507070004 | 46 | 157 | 8.0 | 18.0 | 0.00 | 0.00 | 0.00 | 70 | |
| 20260507065403 | 46 | 165 | 7.0 | 18.0 | 0.00 | 0.00 | 0.00 | 70 | |
| 20260507064503 | 46 | 159 | 7.0 | 23.0 | 0.00 | 0.00 | 0.00 | 71 | |
| 20260507063624 | 45 | 160 | 7.0 | 14.0 | 0.00 | 0.00 | 0.00 | 71 | |
| 20260507062703 | 45 | 154 | 5.0 | 16.0 | 0.00 | 0.00 | 0.00 | 72 | |
| 20260507061824 | 44 | 161 | 4.0 | 12.0 | 0.00 | 0.00 | 0.00 | 74 | |
| 20260507060903 | 43 | 189 | 3.0 | 7.0 | 0.00 | 0.00 | 0.00 | 76 | |
| 20260507060003 | 42 | 219 | 3.0 | 8.0 | 0.00 | 0.00 | 0.00 | 77 | |
| 20260507055403 | 42 | 266 | 2.0 | 7.0 | 0.00 | 0.00 | 0.00 | 78 | |
| 20260507054503 | 41 | 289 | 1.0 | 4.0 | 0.00 | 0.00 | 0.00 | 79 | |
| 20260507053603 | 41 | 289 | 1.0 | 5.0 | 0.00 | 0.00 | 0.00 | 79 | |
| 20260507052703 | 41 | 322 | 2.0 | 5.0 | 0.00 | 0.00 | 0.00 | 79 | |
| 20260507051803 | 41 | 355 | 1.0 | 2.0 | 0.00 | 0.00 | 0.00 | 80 | |
| 20260507050924 | 40 | 359 | 3.0 | 6.0 | 0.00 | 0.00 | 0.00 | 80 | |
| 20260507050003 | 40 | 10 | 4.0 | 6.0 | 0.00 | 0.00 | 0.00 | 80 | |
| 20260507045403 | 40 | 5 | 4.0 | 7.0 | 0.00 | 0.00 | 0.00 | 80 | |
| 20260507044503 | 41 | 352 | 3.0 | 7.0 | 0.00 | 0.00 | 0.00 | 79 | |
| 20260507043603 | 41 | 346 | 1.0 | 4.0 | 0.00 | 0.00 | 0.00 | 79 | |
| 20260507042703 | 41 | 296 | 2.0 | 5.0 | 0.00 | 0.00 | 0.00 | 78 | |
| 20260507041803 | 41 | 267 | 2.0 | 5.0 | 0.00 | 0.00 | 0.00 | 77 | |
| 20260507040903 | 42 | 306 | 3.0 | 6.0 | 0.00 | 0.00 | 0.00 | 78 | |
| 20260507040003 | 42 | 357 | 2.0 | 5.0 | 0.00 | 0.00 | 0.00 | 77 | |
| 20260507035403 | 42 | 329 | 2.0 | 5.0 | 0.00 | 0.00 | 0.00 | 76 | |
| 20260507034503 | 42 | 309 | 1.0 | 5.0 | 0.00 | 0.00 | 0.00 | 76 | |
| 20260507033603 | 43 | 299 | 2.0 | 5.0 | 0.00 | 0.00 | 0.00 | 75 | |
| 20260507032703 | 43 | 197 | 2.0 | 10.0 | 0.00 | 0.00 | 0.00 | 74 | |
| 20260507031803 | 43 | 177 | 3.0 | 13.0 | 0.00 | 0.00 | 0.00 | 74 | |
| 20260507030903 | 43 | 358 | 3.0 | 5.0 | 0.00 | 0.00 | 0.00 | 74 | |
| 20260507030003 | 43 | 144 | 4.0 | 12.0 | 0.00 | 0.00 | 0.00 | 74 | |
| 20260507025403 | 43 | 244 | 3.0 | 12.0 | 0.00 | 0.00 | 0.00 | 75 | |
| 20260507024524 | 43 | 182 | 3.0 | 11.0 | 0.00 | 0.00 | 0.00 | 75 | |
| 20260507023603 | 43 | 169 | 3.0 | 11.0 | 0.00 | 0.00 | 0.00 | 74 | |
| 20260507022703 | 43 | 177 | 3.0 | 14.0 | 0.00 | 0.00 | 0.00 | 74 | |
| 20260507021803 | 43 | 164 | 2.0 | 5.0 | 0.00 | 0.00 | 0.00 | 74 | |
| 20260507020903 | 43 | 139 | 3.0 | 7.0 | 0.00 | 0.00 | 0.00 | 75 | |
| 20260507020003 | 43 | 109 | 3.0 | 12.0 | 0.00 | 0.00 | 0.00 | 76 | |
| 20260507015403 | 42 | 119 | 2.0 | 7.0 | 0.00 | 0.00 | 0.00 | 77 | |
| 20260507014503 | 42 | 145 | 2.0 | 8.0 | 0.00 | 0.00 | 0.00 | 77 | |
| 20260507013603 | 41 | 144 | 2.0 | 5.0 | 0.00 | 0.00 | 0.00 | 77 | |
| 20260507012724 | 41 | 145 | 1.0 | 4.0 | 0.00 | 0.00 | 0.00 | 77 | |
| 20260507011803 | 41 | 141 | 2.0 | 5.0 | 0.00 | 0.00 | 0.00 | 77 | |
| 20260507010004 | 40 | 105 | 1.0 | 4.0 | 0.00 | 0.00 | 0.00 | 77 | |
| 20260507005424 | 40 | 92 | 1.0 | 4.0 | 0.00 | 0.00 | 0.00 | 77 | |
| 20260507004503 | 40 | 77 | 1.0 | 5.0 | 0.00 | 0.00 | 0.00 | 78 | |
| 20260507003603 | 39 | 180 | 1.0 | 4.0 | 0.00 | 0.00 | 0.00 | 79 | |
| 20260507002703 | 39 | 180 | 1.0 | 4.0 | 0.00 | 0.00 | 0.00 | 78 | |
| 20260507001803 | 40 | 158 | 1.0 | 4.0 | 0.00 | 0.00 | 0.00 | 76 | |
| 20260507000903 | 40 | 148 | 2.0 | 4.0 | 0.00 | 0.00 | 0.00 | 75 | |
| 20260507000024 | 40 | 148 | 1.0 | 4.0 | 0.00 | 0.00 | 0.00 | 74 | |
| 20260506235404 | 40 | 148 | 1.0 | 2.0 | 0.00 | 0.00 | 0.00 | 74 | |
| 20260506234503 | 40 | 144 | 1.0 | 4.0 | 0.00 | 0.00 | 0.00 | 75 | |
| 20260506233602 | 40 | 137 | 0.0 | 2.0 | 0.00 | 0.00 | 0.00 | 74 | |
| 20260506232702 | 40 | 138 | 1.0 | 2.0 | 0.00 | 0.00 | 0.00 | 74 | |
| 20260506231823 | 40 | 138 | 1.0 | 4.0 | 0.00 | 0.00 | 0.00 | 74 | |
| 20260506230902 | 40 | 138 | 1.0 | 4.0 | 0.00 | 0.00 | 0.00 | 73 | |
| 20260506230002 | 41 | 137 | 1.0 | 5.0 | 0.00 | 0.00 | 0.00 | 73 | |
| 20260506225402 | 41 | 126 | 1.0 | 5.0 | 0.00 | 0.00 | 0.00 | 73 | |
| 20260506224502 | 41 | 115 | 1.0 | 5.0 | 0.00 | 0.00 | 0.00 | 72 | |
| 20260506223602 | 41 | 5 | 1.0 | 5.0 | 0.00 | 0.00 | 0.00 | 72 | |
| 20260506222702 | 41 | 304 | 0.0 | 1.0 | 0.00 | 0.00 | 0.00 | 71 | |
| 20260506221823 | 42 | 304 | 0.0 | 4.0 | 0.00 | 0.00 | 0.00 | 70 | |
| 20260506220902 | 42 | 304 | 0.0 | 2.0 | 0.00 | 0.00 | 0.00 | 70 | |
| 20260506220002 | 42 | 216 | 1.0 | 5.0 | 0.00 | 0.00 | 0.00 | 70 | |
| 20260506215423 | 42 | 158 | 0.0 | 2.0 | 0.00 | 0.00 | 0.00 | 70 | |
| 20260506214523 | 43 | 155 | 0.0 | 4.0 | 0.00 | 0.00 | 0.00 | 69 | |
| 20260506213602 | 43 | 144 | 2.0 | 6.0 | 0.00 | 0.00 | 0.00 | 69 | |
| 20260506212702 | 43 | 104 | 2.0 | 7.0 | 0.00 | 0.00 | 0.00 | 69 |